Location: Beadle
(51.4667°N, 109.0000°W)
Time: 04:31:25
(UTC+00:00)

DIWATA 2B (PO-101) - Pass Details

Date: 07 July 2022
Orbit: 583 x 599 km, 98.0° (Epoch: 13 August)

Event Time Altitude Azimuth Distance (km) Brightness Sun altitude
Exits shadow 08:56:40 13° 163° (SSE) 1,748 ? -13.0°
Maximum altitude 09:00:25 87° 78° (ENE) 608 ? -12.8°
Drops below altitude 10° 09:04:40 10° 346° (NNW) 1,950 ? -12.5°
Sets 09:06:51 0° 346° (NNW) 2,856 ? -12.4°
